Simultaneous Nadir Overpasses (SNOs) Predictions

Prediction of SNOs between METOP-B and NOAA-19 Satellite Orbit:

Table of predicted SNOs for the next 14.0 days since TLE Epoch: 4/3/2020
Index Date (METOP-B) Time (METOP-B) Lat,Lon (METOP-B) SZA (METOP-B ) Date (NOAA-19) Time (NOAA-19) Lat,Lon (NOAA-19) SZA (NOAA-19 ) Distance(km) Time Diff (sec)
1 04/05/2020 12:03:44 79.90, 20.41 74.16 04/05/2020 12:02:29 79.89, 20.47 74.13 1.41 75
2 04/05/2020 12:54:25 -79.89,-172.31 105.87 04/05/2020 12:53:30 -79.88,-172.16 105.89 3.24 55
3 04/05/2020 13:45:06 79.89, -5.05 74.11 04/05/2020 13:44:30 79.90, -5.14 74.11 2.27 36
4 04/05/2020 14:35:47 -79.88, 162.23 105.91 04/05/2020 14:35:31 -79.89, 162.23 105.91 0.89 16
5 04/05/2020 15:26:28 79.88, -30.50 74.07 04/05/2020 15:26:30 79.88, -30.44 74.08 1.59 2
6 04/05/2020 16:17:09 -79.87, 136.78 105.96 04/05/2020 16:17:31 -79.87, 136.92 105.94 2.92 22
7 04/05/2020 17:07:49 79.89, -55.67 74.07 04/05/2020 17:08:30 79.87, -55.74 74.05 3.20 41
8 04/05/2020 17:58:30 -79.86, 111.32 106.00 04/05/2020 17:59:31 -79.88, 111.31 105.96 2.83 61
9 04/16/2020 13:17:08 79.92, 2.21 70.19 04/16/2020 13:16:06 79.92, 2.17 70.17 0.72 62
10 04/16/2020 14:07:49 -79.92, 169.54 109.83 04/16/2020 14:07:04 -79.90, 169.65 109.84 2.73 45
11 04/16/2020 14:58:30 79.90, -23.25 70.15 04/16/2020 14:58:06 79.90, -23.13 70.15 2.42 24
12 04/16/2020 15:49:11 -79.90, 144.08 109.87 04/16/2020 15:49:05 -79.91, 144.04 109.87 1.10 6
13 04/16/2020 16:39:52 79.89, -48.71 70.10 04/16/2020 16:40:07 79.91, -48.73 70.12 2.23 15
14 04/16/2020 17:30:33 -79.89, 118.62 109.91 04/16/2020 17:31:05 -79.89, 118.73 109.89 2.16 32
15 04/16/2020 18:21:14 79.88, -74.17 70.06 04/16/2020 18:22:07 79.89, -74.03 70.10 3.15 53




NCC Satellite Simultaneous Nadir Overpasses (SNOs) Prediction Service
